Weather History for Mansfield, OH

Change the Weather History Date:

Saturday, November 3, 2012

  Actual Average Record
Temperature  
Mean Temperature 40 °F 46 °F  
Max Temperature 45 °F 55 °F 75 °F (1961)
Min Temperature 34 °F 37 °F 14 °F (1951)
Degree Days  
Heating Degree Days 25 19  
Month to date heating degree days 77 56  
Since 1 July heating degree days 649 624  
Cooling Degree Days 0 0  
Month to date cooling degree days 0 0  
Year to date cooling degree days 955 632  
Moisture  
Dew Point 30 °F    
Average Humidity 75    
Maximum Humidity 96    
Minimum Humidity 53    
Precipitation  
Precipitation 0.00 in 0.12 in 1.60 in (1985)
Month to date precipitation 0.00 0.37  
Year to date precipitation 35.48 37.46  
Snow  
Snow 0.00 in 0.00 in - ()
Month to date snowfall 0.0 0.1  
Since 1 July snowfall 2.5 0.6  
Since 1 September snowfall 2.5 0.6  
Snow Depth 0.00 in    
Sea Level Pressure  
Sea Level Pressure 30.13 in    
Wind  
Wind Speed 4 mph (NNW)    
Max Wind Speed 10 mph    
Max Gust Speed 14 mph    
Visibility 10 miles    
Events      
T = Trace of Precipitation, MM = Missing Value Source: NWS Daily Summary

Daily Weather History Graph

Daily Weather History Graph

Search for Another Location

Airport:

Trip Planner

Search our weather history database for the weather conditions in past years. The results will help you decide how hot, cold, wet, or windy it might be!

Date:

Astronomy

Nov. 03, 2012 Rise Set
Actual Time 8:03 AM EDT 6:23 PM EDT
Civil Twilight 7:34 AM EDT 6:51 PM EDT
Nautical Twilight 7:02 AM EDT 7:24 PM EDT
Astronomical Twilight 6:30 AM EDT 7:56 PM EDT
Moon 10:02 PM EDT (11/3) 12:07 PM EDT (11/3)
Length of Visible Light 11h 16m
Length of Day
10h 19m
Waning Gibbous, 80% of the Moon is Illuminated
Nov 3
Waning Gibbous
Nov 6
Last Quarter
Nov 13
New
Nov 20
First Quarter
Nov 28
Full

Hourly Weather History & Observations

Time (EDT) Temp. Windchill Dew Point Humidity Pressure Visibility Wind Dir Wind Speed Gust Speed Precip Events Conditions
12:52 AM 37.9 °F 33.5 °F 30.0 °F 73% 30.07 in 10.0 mi WNW 5.8 mph - N/A   Overcast
1:52 AM 37.9 °F 33.5 °F 30.9 °F 76% 30.08 in 10.0 mi NW 5.8 mph - N/A   Overcast
2:52 AM 37.0 °F 34.5 °F 30.9 °F 79% 30.09 in 10.0 mi WNW 3.5 mph - N/A   Overcast
3:02 AM 37.4 °F - 30.2 °F 75% 30.06 in 10.0 mi Calm Calm - N/A   Overcast
3:44 AM 37.4 °F 33.8 °F 30.2 °F 75% 30.06 in 10.0 mi WNW 4.6 mph - N/A   Overcast
3:52 AM 37.0 °F 33.3 °F 30.9 °F 79% 30.09 in 10.0 mi WNW 4.6 mph - N/A   Overcast
4:52 AM 37.0 °F 30.4 °F 30.0 °F 76% 30.10 in 10.0 mi NW 9.2 mph - N/A   Overcast
5:52 AM 37.0 °F 31.0 °F 30.0 °F 76% 30.12 in 10.0 mi NW 8.1 mph - N/A   Overcast
6:52 AM 36.0 °F 29.6 °F 28.9 °F 76% 30.13 in 10.0 mi NW 8.1 mph - N/A   Overcast
7:52 AM 36.0 °F 30.3 °F 28.9 °F 76% 30.14 in 10.0 mi NW 6.9 mph - N/A   Overcast
8:52 AM 34.0 °F 28.8 °F 30.0 °F 85% 30.16 in 10.0 mi West 5.8 mph - N/A   Overcast
9:52 AM 34.0 °F 29.8 °F 30.0 °F 85% 30.18 in 10.0 mi NW 4.6 mph - N/A   Mostly Cloudy
10:52 AM 37.0 °F 33.3 °F 32.0 °F 82% 30.19 in 10.0 mi NW 4.6 mph - N/A   Clear
11:35 AM 39.2 °F 35.9 °F 30.2 °F 70% 30.15 in 10.0 mi NW 4.6 mph - N/A   Mostly Cloudy
11:52 AM 39.0 °F - 30.9 °F 73% 30.18 in 10.0 mi Calm Calm - N/A   Mostly Cloudy
12:52 PM 39.9 °F - 30.0 °F 68% 30.17 in 10.0 mi Calm Calm - N/A   Overcast
1:52 PM 41.0 °F - 28.9 °F 62% 30.16 in 10.0 mi Calm Calm - N/A   Overcast
2:03 PM 41.0 °F - 28.4 °F 61% 30.14 in 10.0 mi Calm Calm - N/A   Overcast
2:52 PM 42.1 °F 38.4 °F 30.0 °F 62% 30.15 in 10.0 mi North 5.8 mph - N/A   Overcast
3:32 PM 42.8 °F 41.1 °F 28.4 °F 57% 30.11 in 10.0 mi NNE 3.5 mph - N/A   Mostly Cloudy
3:44 PM 44.6 °F 40.7 °F 30.2 °F 57% 30.11 in 10.0 mi North 6.9 mph - N/A   Scattered Clouds
3:52 PM 44.1 °F 42.5 °F 28.9 °F 55% 30.14 in 10.0 mi NNW 3.5 mph - N/A   Partly Cloudy
4:52 PM 42.1 °F 37.1 °F 30.0 °F 62% 30.14 in 10.0 mi North 8.1 mph - N/A   Mostly Cloudy
5:52 PM 39.9 °F 36.7 °F 30.0 °F 68% 30.13 in 10.0 mi NE 4.6 mph - N/A   Overcast
6:52 PM 39.0 °F 36.8 °F 30.9 °F 73% 30.15 in 10.0 mi North 3.5 mph - N/A   Overcast
7:52 PM 39.0 °F 35.7 °F 30.9 °F 73% 30.16 in 10.0 mi North 4.6 mph - N/A   Overcast
8:52 PM 37.0 °F 34.5 °F 30.9 °F 79% 30.17 in 10.0 mi NNW 3.5 mph - N/A   Scattered Clouds
9:52 PM 35.1 °F - 32.0 °F 89% 30.16 in 10.0 mi Calm Calm - N/A   Clear
10:52 PM 34.0 °F - 32.0 °F 92% 30.16 in 10.0 mi Calm Calm - N/A   Scattered Clouds
11:52 PM 34.0 °F - 32.0 °F 92% 30.16 in 10.0 mi Calm Calm - N/A   Scattered Clouds